La Push, WA

12:14 AM PDT on August 26, 2016 (GMT -0700)
Quillayute

Weather History for KUIL - October, 2011

Change the Weather History Date:

Saturday, October 22, 2011

  Actual Average Record
Temperature  
Mean Temperature 54 °F 49 °F  
Max Temperature 58 °F 56 °F 72 °F (2013)
Min Temperature 49 °F 41 °F 30 °F (1980)
Degree Days  
Heating Degree Days 11 16  
Month to date heating degree days 310  
Since 1 July heating degree days 935  
Cooling Degree Days 0 0  
Month to date cooling degree days 0  
Year to date cooling degree days 19  
Growing Degree Days 4 (Base 50)    
Moisture  
Dew Point 56 °F    
Average Humidity 98    
Maximum Humidity 100    
Minimum Humidity 93    
Precipitation  
Precipitation 0.93 in 0.38 in 2.44 in (2014)
Month to date precipitation 6.68  
Year to date precipitation 67.22  
Sea Level Pressure  
Sea Level Pressure 30.14 in    
Wind  
Wind Speed 6 mph (SW)    
Max Wind Speed 16 mph    
Max Gust Speed 23 mph    
Visibility 5 miles    
Events Fog , Rain    
T = Trace of Precipitation, MM = Missing Value Source: NWS Daily Summary

Daily Weather History Graph

Daily Weather History Graph

Search for Another Location

Airport or City:

Trip Planner

Search our weather history database for the weather conditions in past years. The results will help you decide how hot, cold, wet, or windy it might be!

Date:

Astronomy

Oct. 22, 2011 Rise Set
Actual Time 7:47 AM PDT 6:17 PM PDT
Civil Twilight 7:15 AM PDT 6:48 PM PDT
Nautical Twilight 6:39 AM PDT 7:24 PM PDT
Astronomical Twilight 6:03 AM PDT 8:00 PM PDT
Moon 2:31 AM PDT (10/22) 3:55 PM PDT (10/22)
Length of Visible Light 11h 32m
Length of Day
10h 29m
Waning Crescent, 22% of the Moon is Illuminated
Oct 22
Waning Crescent
Oct 26
New
Nov 2
First Quarter
Nov 10
Full
Nov 18
Last Quarter

Hourly Weather History & Observations

Time (PDT) Temp. Dew Point Humidity Pressure Visibility Wind Dir Wind Speed Gust Speed Precip Events Conditions
12:53 AM 53.1 °F 51.1 °F 93% 30.19 in 10.0 mi East 3.5 mph - N/A   Overcast
1:53 AM 53.1 °F 52.0 °F 96% 30.19 in 8.0 mi Calm Calm - N/A   Overcast
2:00 AM 53.6 °F 51.8 °F 94% 30.18 in 10.0 mi Calm Calm - N/A   Overcast
2:53 AM 53.1 °F 51.1 °F 93% 30.16 in 10.0 mi Calm Calm - 0.00 in   Overcast
3:28 AM 51.8 °F 51.8 °F 100% 30.14 in 2.5 mi Calm Calm - 0.07 in Rain Heavy Rain
3:37 AM 51.8 °F 51.8 °F 100% 30.13 in 3.0 mi ENE 4.6 mph - 0.09 in Rain Rain
3:53 AM 52.0 °F 51.1 °F 97% 30.12 in 3.0 mi East 4.6 mph - 0.17 in Rain Rain
4:53 AM 52.0 °F 52.0 °F 100% 30.10 in 7.0 mi ENE 3.5 mph - 0.14 in Rain Light Rain
5:10 AM 51.8 °F 51.8 °F 100% 30.09 in 3.0 mi Calm Calm - 0.02 in Rain Light Rain
5:49 AM 53.6 °F 53.6 °F 100% 30.08 in 2.5 mi Calm Calm - 0.06 in Rain Rain
5:53 AM 54.0 °F 53.1 °F 97% 30.08 in 1.5 mi Calm Calm - 0.09 in Rain Rain
6:38 AM 55.4 °F 55.4 °F 100% 30.06 in 2.0 mi South 5.8 mph - 0.21 in Rain Light Rain
6:44 AM 55.4 °F 55.4 °F 100% 30.06 in 3.0 mi South 8.1 mph - 0.21 in   Overcast
6:53 AM 57.0 °F 55.9 °F 96% 30.08 in 6.0 mi SSW 8.1 mph - 0.21 in   Overcast
7:12 AM 57.2 °F 57.2 °F 100% 30.07 in 1.8 mi SW 8.1 mph - 0.01 in   Overcast
7:17 AM 57.2 °F 57.2 °F 100% 30.07 in 1.2 mi SW 9.2 mph - 0.01 in   Overcast
7:36 AM 57.2 °F 57.2 °F 100% 30.08 in 0.8 mi WSW 9.2 mph - 0.01 in   Overcast
7:53 AM 57.0 °F 57.0 °F 100% 30.09 in 0.5 mi WSW 10.4 mph - 0.01 in Fog Fog
8:10 AM 57.2 °F 57.2 °F 100% 30.09 in 1.2 mi SW 8.1 mph - N/A   Overcast
8:28 AM 57.2 °F 57.2 °F 100% 30.10 in 0.8 mi SW 8.1 mph - N/A   Overcast
8:40 AM 57.2 °F 57.2 °F 100% 30.10 in 1.2 mi SW 6.9 mph - 0.01 in Rain Light Rain
8:53 AM 57.0 °F 57.0 °F 100% 30.10 in 1.0 mi SW 6.9 mph - 0.03 in Rain Light Rain
9:01 AM 57.2 °F 57.2 °F 100% 30.10 in 1.2 mi SW 6.9 mph - 0.01 in Rain Light Rain
9:09 AM 57.2 °F 57.2 °F 100% 30.10 in 1.8 mi SW 6.9 mph - 0.02 in Rain Light Rain
9:22 AM 57.2 °F 57.2 °F 100% 30.10 in 1.0 mi SW 5.8 mph - 0.03 in Rain Light Rain
9:31 AM 57.2 °F 57.2 °F 100% 30.11 in 2.0 mi WSW 6.9 mph - 0.03 in Rain Light Rain
9:39 AM 57.2 °F 57.2 °F 100% 30.10 in 5.0 mi SW 10.4 mph 16.1 mph 0.03 in   Overcast
9:48 AM 57.2 °F 57.2 °F 100% 30.11 in 1.8 mi SW 6.9 mph - 0.04 in   Overcast
9:53 AM 57.9 °F 57.9 °F 100% 30.11 in 1.8 mi SW 9.2 mph - 0.04 in   Overcast
10:07 AM 57.2 °F 57.2 °F 100% 30.12 in 3.0 mi WSW 10.4 mph - N/A   Overcast
10:24 AM 57.2 °F 57.2 °F 100% 30.12 in 2.5 mi SW 9.2 mph - N/A   Overcast
10:31 AM 57.2 °F 57.2 °F 100% 30.12 in 5.0 mi SW 6.9 mph - N/A   Overcast
10:41 AM 57.2 °F 57.2 °F 100% 30.12 in 2.0 mi SW 9.2 mph - 0.00 in Rain Light Rain
10:44 AM 57.2 °F 57.2 °F 100% 30.12 in 1.2 mi SW 8.1 mph - 0.00 in Rain Light Rain
10:53 AM 57.0 °F 57.0 °F 100% 30.13 in 1.8 mi SSW 12.7 mph - 0.00 in Rain Light Rain
10:56 AM 57.2 °F 57.2 °F 100% 30.12 in 3.0 mi SSW 9.2 mph - N/A   Overcast
11:03 AM 57.2 °F 57.2 °F 100% 30.13 in 1.5 mi Variable 6.9 mph - 0.00 in Rain Light Rain
11:14 AM 57.2 °F 57.2 °F 100% 30.13 in 3.0 mi SW 11.5 mph - 0.01 in   Overcast
11:28 AM 57.2 °F 57.2 °F 100% 30.13 in 3.0 mi SSW 8.1 mph - 0.01 in Rain Light Rain
11:31 AM 57.2 °F 57.2 °F 100% 30.13 in 1.8 mi SW 8.1 mph - 0.01 in Rain Light Rain
11:39 AM 57.2 °F 57.2 °F 100% 30.14 in 1.2 mi SW 10.4 mph - 0.02 in Rain Light Rain
11:43 AM 57.2 °F 57.2 °F 100% 30.14 in 2.0 mi WSW 11.5 mph - 0.02 in Rain Light Rain
11:50 AM 57.2 °F 57.2 °F 100% 30.14 in 4.0 mi SW 11.5 mph - 0.02 in   Overcast
11:53 AM 57.0 °F 57.0 °F 100% 30.14 in 2.0 mi SW 9.2 mph - 0.02 in   Overcast
11:55 AM 57.2 °F 57.2 °F 100% 30.14 in 1.2 mi SW 9.2 mph 18.4 mph 0.00 in Rain Light Rain
12:12 PM 57.2 °F 57.2 °F 100% 30.15 in 2.0 mi WSW 11.5 mph 20.7 mph 0.01 in Rain Light Rain
12:21 PM 57.2 °F 57.2 °F 100% 30.15 in 8.0 mi WSW 10.4 mph - 0.01 in   Overcast
12:33 PM 57.2 °F 57.2 °F 100% 30.15 in 8.0 mi SSW 8.1 mph - 0.01 in Rain Light Rain
12:47 PM 57.2 °F 57.2 °F 100% 30.14 in 2.0 mi WSW 6.9 mph - 0.01 in Rain Light Rain
12:48 PM 57.2 °F 57.2 °F 100% 30.14 in 1.8 mi SW 6.9 mph - 0.01 in Rain Light Rain
12:53 PM 57.0 °F 57.0 °F 100% 30.15 in 2.0 mi SW 11.5 mph - 0.03 in Rain Light Rain
1:03 PM 57.2 °F 57.2 °F 100% 30.15 in 3.0 mi SW 10.4 mph - 0.01 in Rain Light Rain
1:53 PM 57.0 °F 57.0 °F 100% 30.15 in 10.0 mi SSW 8.1 mph - 0.02 in   Overcast
2:14 PM 57.2 °F 55.4 °F 94% 30.15 in 10.0 mi WSW 10.4 mph 18.4 mph N/A   Overcast
2:33 PM 57.2 °F 55.4 °F 94% 30.15 in 1.8 mi SW 8.1 mph - 0.01 in Rain Rain
2:41 PM 57.2 °F 55.4 °F 94% 30.15 in 1.8 mi SW 8.1 mph - 0.02 in Rain Light Rain
2:48 PM 57.2 °F 55.4 °F 94% 30.15 in 2.5 mi SW 10.4 mph - 0.03 in Rain Light Rain
2:53 PM 57.0 °F 55.9 °F 96% 30.16 in 2.5 mi WSW 9.2 mph - 0.03 in Rain Light Rain
2:59 PM 57.2 °F 55.4 °F 94% 30.15 in 1.2 mi WSW 9.2 mph - 0.02 in Rain Light Rain
3:13 PM 57.2 °F 55.4 °F 94% 30.15 in 0.8 mi West 10.4 mph - 0.12 in Rain Heavy Rain
3:19 PM 57.2 °F 55.4 °F 94% 30.15 in 1.5 mi West 12.7 mph - 0.14 in Rain Light Rain
3:21 PM 57.2 °F 55.4 °F 94% 30.15 in 3.0 mi WSW 10.4 mph - 0.14 in Rain Light Rain
3:50 PM 57.2 °F 57.2 °F 100% 30.15 in 10.0 mi WSW 10.4 mph - 0.14 in   Overcast
3:53 PM 57.9 °F 57.0 °F 97% 30.16 in 10.0 mi WSW 9.2 mph - 0.14 in   Overcast
4:00 PM 57.2 °F 57.2 °F 100% 30.15 in 9.0 mi SW 10.4 mph - N/A   Overcast
4:18 PM 57.2 °F 57.2 °F 100% 30.15 in 9.0 mi SW 8.1 mph - N/A   Overcast
4:32 PM 57.2 °F 57.2 °F 100% 30.15 in 9.0 mi SW 10.4 mph - N/A   Overcast
4:43 PM 57.2 °F 57.2 °F 100% 30.15 in 9.0 mi SW 10.4 mph - N/A   Overcast
4:50 PM 57.2 °F 55.4 °F 94% 30.15 in 10.0 mi WSW 5.8 mph - N/A   Overcast
4:53 PM 57.0 °F 55.9 °F 96% 30.15 in 10.0 mi WSW 8.1 mph - N/A   Overcast
5:12 PM 57.2 °F 55.4 °F 94% 30.15 in 10.0 mi WSW 8.1 mph - N/A   Overcast
5:28 PM 57.2 °F 55.4 °F 94% 30.15 in 6.0 mi SW 10.4 mph - 0.00 in Rain Light Rain
5:40 PM 57.2 °F 55.4 °F 94% 30.15 in 10.0 mi WSW 9.2 mph - 0.00 in   Mostly Cloudy
5:53 PM 57.0 °F 55.9 °F 96% 30.15 in 10.0 mi WSW 10.4 mph - 0.00 in   Overcast
6:08 PM 55.4 °F 55.4 °F 100% 30.15 in 10.0 mi WSW 5.8 mph - N/A   Overcast
6:26 PM 55.4 °F 55.4 °F 100% 30.15 in 9.0 mi WSW 5.8 mph - N/A   Overcast
6:42 PM 55.4 °F 55.4 °F 100% 30.15 in 10.0 mi WSW 3.5 mph - N/A   Overcast
6:53 PM 55.9 °F 55.0 °F 97% 30.15 in 10.0 mi WSW 4.6 mph - N/A   Overcast
7:20 PM 55.4 °F 55.4 °F 100% 30.15 in 10.0 mi WSW 4.6 mph - N/A   Overcast
7:53 PM 55.9 °F 55.0 °F 97% 30.16 in 10.0 mi WSW 3.5 mph - N/A   Overcast
8:13 PM 55.4 °F 53.6 °F 94% 30.16 in 10.0 mi West 3.5 mph - N/A   Overcast
8:53 PM 54.0 °F 53.1 °F 97% 30.17 in 7.0 mi Calm Calm - N/A   Mostly Cloudy
9:04 PM 53.6 °F 53.6 °F 100% 30.17 in 7.0 mi Calm Calm - N/A   Mostly Cloudy
9:27 PM 53.6 °F 53.6 °F 100% 30.17 in 8.0 mi SW 3.5 mph - N/A   Overcast
9:53 PM 54.0 °F 54.0 °F 100% 30.18 in 8.0 mi Calm Calm - N/A   Overcast
10:00 PM - - N/A% - - North - - N/A   Unknown
10:32 PM 53.6 °F 53.6 °F 100% 30.19 in 10.0 mi Calm Calm - N/A   Overcast
10:53 PM 54.0 °F 53.1 °F 97% 30.19 in 9.0 mi Calm Calm - N/A   Overcast
11:33 PM 51.8 °F 51.8 °F 100% 30.19 in 1.8 mi Calm Calm - N/A   Mostly Cloudy
11:39 PM 51.8 °F 51.8 °F 100% 30.19 in 0.8 mi Calm Calm - N/A   Mostly Cloudy
11:49 PM 51.8 °F 51.8 °F 100% 30.20 in 1.5 mi SSE 3.5 mph - N/A   Mostly Cloudy
11:53 PM 52.0 °F 51.1 °F 97% 30.20 in 4.0 mi Calm Calm - N/A   Mostly Cloudy
11:58 PM 50.0 °F 50.0 °F 100% 30.20 in 1.8 mi SSE 3.5 mph - N/A   Overcast